Voltar ao catálogo

ONEWEB-0247

AtivoComunicaçõesPO
NORAD 48777·PAYLOAD·🇬🇧 United Kingdom

Lançado May 28, 2021 de Vostochny Cosmodrome

Loading…

Próximas Passagens (próximas 24 horas)

TLE

AtualizadoSource: CelesTrak SupGP

Época: Sep 14, 2026, 16:10 UTC

1 48777C 21045L   26257.67409722 -.00001195  00000+0 -31790-2 0  2570
2 48777  87.8973 241.3671 0002576  71.3469 323.3778 13.15544995    11

Acompanhe ONEWEB-0247 em tempo real com AllMySat

Download on the App Store